sat.trackr.live / text

‹ back to catalog

STARLINK-35965

NORAD 66631 · 2025-271Q

PAYLOAD ACTIVE UNKNOWN

§ Identity

Operator
Country
US
Launch date
2025-11-23
Launch site
AFWTR
Launch vehicle
Mass (kg)
RCS (m²)

Purposes: comms

External: N2YO · Heavens-Above · Gunter

§ Orbital elements

Epoch: 2026-09-19T16:35:08.300256Z

Period
93.85 min
Inclination
53.1588°
Eccentricity
0.0000899
Mean motion
15.34416839 rev/d
Perigee alt
462.0 km
Apogee alt
463.3 km
Semi-major
6,840.8 km
B*
4.6941e-4
RAAN
313.5308°
Arg perigee
73.8245°
Mean anomaly
286.2856°
Rev number
4,733

§ Raw data

STARLINK-359651 66631U 25271Q   26262.69106829  .00015525  00000+0  46941-3 0  99922 66631  53.1588 313.5308 0000899  73.8245 286.2856 15.34416839 47330

JSON: /api/v1/satellites/66631 · /tle

For live sub-satellite position, see the globe view (requires WebGL).

§ Visibility from observer

Set your observer location to see the next 7 days of passes ≥ 10°. The values pass through the URL so the page stays shareable.

No JS? Fill the form by hand. The geolocation button needs JavaScript.